UAE920 ZBAA-ZSSS

Flight info

Callsign UAE920
Flight time 1h 27m
Altitude 38100
Route ELKUR2G ELKUR W40 DOXAB/K0874S1190 W40 YQG/K0869S1160 W142 DALIM/K0872S1190 A593 DPX A470 DALNU W166 ZJ W167 SASAN SAS71A
Aircraft B77W/H-SDE1E2E3FGHIJ2J3J4J5M1RWXY/LB1D1

Departure

Time 2026-05-08 06:38
Airport Beijing Capital International Airport (ZBAA)

Arrival

Time 2026-05-08 08:05
Airport Shanghai Hongqiao International Airport (ZSSS)
Time Latitude Longitude Altitude Speed Heading
2026-05-08 06:00 40.06099 116.60364 128 ft 0 kts 264°
2026-05-08 06:25 40.06099 116.60366 128 ft 1 kts 264°
2026-05-08 06:25 40.06101 116.60386 128 ft 2 kts 264°
2026-05-08 06:25 40.06101 116.60405 128 ft 2 kts 275°
2026-05-08 06:25 40.06099 116.60424 128 ft 2 kts 288°
2026-05-08 06:26 40.06093 116.60442 128 ft 2 kts 298°
2026-05-08 06:26 40.06085 116.60458 128 ft 2 kts 309°
2026-05-08 06:26 40.06075 116.60472 128 ft 2 kts 320°
2026-05-08 06:26 40.06063 116.60484 128 ft 2 kts 332°
2026-05-08 06:27 40.06049 116.60492 128 ft 2 kts 342°
2026-05-08 06:27 40.06035 116.60496 128 ft 1 kts 353°
2026-05-08 06:27 40.06032 116.60497 128 ft 0 kts 355°
2026-05-08 06:29 40.06042 116.60495 128 ft 3 kts 355°
2026-05-08 06:29 40.06087 116.60489 128 ft 8 kts 347°
2026-05-08 06:30 40.06153 116.60445 128 ft 12 kts 316°
2026-05-08 06:30 40.06177 116.60344 128 ft 13 kts 274°
2026-05-08 06:30 40.06173 116.60210 128 ft 15 kts 274°
2026-05-08 06:30 40.06265 116.60136 128 ft 18 kts 351°
2026-05-08 06:31 40.06403 116.60113 128 ft 21 kts 354°
2026-05-08 06:31 40.06558 116.60089 128 ft 23 kts 353°
2026-05-08 06:31 40.06718 116.60064 128 ft 22 kts 353°
2026-05-08 06:31 40.06874 116.60038 128 ft 22 kts 353°
2026-05-08 06:32 40.07029 116.60013 128 ft 22 kts 353°
2026-05-08 06:32 40.07181 116.59989 128 ft 21 kts 353°
2026-05-08 06:32 40.07330 116.59966 128 ft 21 kts 354°
2026-05-08 06:32 40.07478 116.59944 128 ft 21 kts 353°
2026-05-08 06:33 40.07621 116.59923 128 ft 20 kts 354°
2026-05-08 06:33 40.07763 116.59901 128 ft 20 kts 353°
2026-05-08 06:33 40.07903 116.59879 129 ft 20 kts 353°
2026-05-08 06:33 40.08042 116.59856 129 ft 19 kts 353°
2026-05-08 06:34 40.08178 116.59836 129 ft 19 kts 353°
2026-05-08 06:34 40.08311 116.59815 128 ft 19 kts 353°
2026-05-08 06:34 40.08443 116.59793 129 ft 19 kts 352°
2026-05-08 06:34 40.08575 116.59772 129 ft 18 kts 354°
2026-05-08 06:35 40.08705 116.59753 129 ft 18 kts 353°
2026-05-08 06:35 40.08834 116.59732 129 ft 18 kts 353°
2026-05-08 06:35 40.08926 116.59716 129 ft 9 kts 342°
2026-05-08 06:35 40.08945 116.59702 129 ft 0 kts 323°
2026-05-08 06:36 40.08947 116.59700 129 ft 1 kts 323°
2026-05-08 06:36 40.08963 116.59678 129 ft 6 kts 303°
2026-05-08 06:37 40.08968 116.59597 129 ft 11 kts 249°
2026-05-08 06:37 40.08921 116.59510 129 ft 10 kts 210°
2026-05-08 06:37 40.08836 116.59502 129 ft 18 kts 175°
2026-05-08 06:37 40.08563 116.59546 129 ft 75 kts 172°
2026-05-08 06:38 40.07764 116.59675 129 ft 154 kts 175°
2026-05-08 06:38 40.06570 116.59873 634 ft 182 kts 172°
2026-05-08 06:38 40.05408 116.60063 1792 ft 168 kts 176°
2026-05-08 06:38 40.04219 116.60173 2597 ft 185 kts 171°
2026-05-08 06:39 40.02941 116.60468 3517 ft 191 kts 174°
2026-05-08 06:39 40.01593 116.60650 4077 ft 203 kts 175°
2026-05-08 06:39 40.00137 116.60862 4568 ft 219 kts 175°
2026-05-08 06:39 39.98576 116.61104 5074 ft 236 kts 175°
2026-05-08 06:40 39.96891 116.61367 5611 ft 253 kts 175°
2026-05-08 06:40 39.95092 116.61648 6179 ft 268 kts 175°
2026-05-08 06:40 39.93224 116.61940 6984 ft 273 kts 175°
2026-05-08 06:40 39.91332 116.62234 7723 ft 281 kts 176°
2026-05-08 06:41 39.89365 116.62540 8509 ft 286 kts 176°
2026-05-08 06:41 39.87373 116.62850 9267 ft 292 kts 177°
2026-05-08 06:41 39.85347 116.63165 9960 ft 299 kts 177°
2026-05-08 06:41 39.83226 116.63492 10479 ft 314 kts 177°
2026-05-08 06:42 39.81010 116.63828 10872 ft 333 kts 177°
2026-05-08 06:42 39.78622 116.64190 11291 ft 353 kts 177°
2026-05-08 06:42 39.76140 116.64568 11763 ft 371 kts 177°
2026-05-08 06:42 39.73488 116.64970 12252 ft 390 kts 177°
2026-05-08 06:43 39.70747 116.65387 12821 ft 406 kts 177°
2026-05-08 06:43 39.67933 116.65815 13591 ft 418 kts 177°
2026-05-08 06:43 39.65014 116.66264 14577 ft 425 kts 176°
2026-05-08 06:43 39.62095 116.66964 15648 ft 433 kts 171°
2026-05-08 06:44 39.59131 116.67775 16773 ft 438 kts 171°
2026-05-08 06:44 39.56166 116.68613 17787 ft 445 kts 168°
2026-05-08 06:44 39.53216 116.69966 18722 ft 456 kts 157°
2026-05-08 06:44 39.50375 116.71879 19725 ft 463 kts 152°
2026-05-08 06:45 39.47577 116.73895 20735 ft 469 kts 152°
2026-05-08 06:45 39.44710 116.75962 21718 ft 475 kts 152°
2026-05-08 06:45 39.41789 116.78060 22654 ft 481 kts 153°
2026-05-08 06:45 39.38878 116.80146 23581 ft 486 kts 153°
2026-05-08 06:46 39.35907 116.82269 24440 ft 493 kts 153°
2026-05-08 06:46 39.32814 116.84238 25182 ft 498 kts 160°
2026-05-08 06:46 39.29567 116.85921 25858 ft 506 kts 161°
2026-05-08 06:46 39.26306 116.87568 26599 ft 512 kts 162°
2026-05-08 06:47 39.22958 116.89254 27373 ft 518 kts 162°
2026-05-08 06:47 39.19552 116.90700 28051 ft 520 kts 170°
2026-05-08 06:47 39.15978 116.91518 28678 ft 521 kts 179°
2026-05-08 06:47 39.12359 116.91656 29294 ft 521 kts 188°
2026-05-08 06:48 39.08796 116.91110 30046 ft 516 kts 198°
2026-05-08 06:48 39.05410 116.89925 31073 ft 502 kts 207°
2026-05-08 06:48 39.02239 116.88256 32348 ft 486 kts 212°
2026-05-08 06:48 38.99216 116.86541 33548 ft 474 kts 212°
2026-05-08 06:49 38.96225 116.84833 34441 ft 467 kts 212°
2026-05-08 06:49 38.93290 116.83152 34989 ft 467 kts 212°
2026-05-08 06:49 38.90313 116.81449 35514 ft 467 kts 212°
2026-05-08 06:49 38.87348 116.79756 36078 ft 465 kts 213°
2026-05-08 06:50 38.84424 116.78088 36774 ft 463 kts 213°
2026-05-08 06:50 38.81459 116.76403 37497 ft 458 kts 213°
2026-05-08 06:50 38.78525 116.74739 38006 ft 456 kts 213°
2026-05-08 06:50 38.75529 116.73038 38093 ft 459 kts 213°
2026-05-08 06:51 38.69638 116.69699 38089 ft 466 kts 213°
2026-05-08 06:51 38.63456 116.66727 38091 ft 482 kts 202°
2026-05-08 06:52 38.56739 116.65625 38094 ft 489 kts 194°
2026-05-08 06:52 38.49965 116.64862 38100 ft 492 kts 194°
2026-05-08 06:53 38.43127 116.64092 38097 ft 489 kts 194°
2026-05-08 06:53 38.36345 116.63320 38106 ft 489 kts 194°
2026-05-08 06:54 38.29523 116.62970 38091 ft 501 kts 184°
2026-05-08 06:54 38.22607 116.64864 38106 ft 515 kts 172°
2026-05-08 06:55 38.15686 116.67456 38101 ft 516 kts 172°
2026-05-08 06:55 38.08793 116.70041 38109 ft 517 kts 172°
2026-05-08 06:56 38.01929 116.72671 38113 ft 516 kts 172°
2026-05-08 06:56 37.95056 116.75297 38105 ft 515 kts 172°
2026-05-08 06:57 37.88202 116.77905 38107 ft 515 kts 172°
2026-05-08 06:57 37.81300 116.80521 38342 ft 524 kts 172°
2026-05-08 06:58 37.77819 116.81840 38868 ft 522 kts 172°
2026-05-08 06:58 37.74336 116.83158 39112 ft 523 kts 172°
2026-05-08 06:58 37.67426 116.85772 39130 ft 515 kts 172°
2026-05-08 06:59 37.60532 116.88367 39309 ft 521 kts 172°
2026-05-08 06:59 37.53630 116.90968 39322 ft 513 kts 172°
2026-05-08 07:00 37.46916 116.93497 39129 ft 499 kts 173°
2026-05-08 07:00 37.40179 116.96012 39148 ft 511 kts 173°
2026-05-08 07:01 37.33293 116.98583 39138 ft 519 kts 172°
2026-05-08 07:01 37.26415 117.01275 39160 ft 520 kts 168°
2026-05-08 07:02 37.19593 117.04537 39147 ft 524 kts 168°
2026-05-08 07:02 37.12747 117.07793 39159 ft 525 kts 168°
2026-05-08 07:03 37.05931 117.11003 39166 ft 525 kts 168°
2026-05-08 07:03 36.99110 117.14197 39162 ft 525 kts 168°
2026-05-08 07:04 36.92236 117.17400 39164 ft 526 kts 168°
2026-05-08 07:04 36.85365 117.20435 39156 ft 517 kts 175°
2026-05-08 07:05 36.81892 117.21257 39154 ft 505 kts 184°
2026-05-08 07:05 36.78428 117.21479 39168 ft 494 kts 190°
2026-05-08 07:05 36.71560 117.21479 39173 ft 495 kts 191°
2026-05-08 07:06 36.64680 117.21451 39192 ft 491 kts 191°
2026-05-08 07:06 36.57788 117.21407 39193 ft 497 kts 191°
2026-05-08 07:07 36.50934 117.21365 39218 ft 493 kts 191°
2026-05-08 07:07 36.44053 117.21358 39205 ft 496 kts 187°
2026-05-08 07:08 36.37190 117.22988 39222 ft 511 kts 173°
2026-05-08 07:08 36.30309 117.25543 39220 ft 523 kts 173°
2026-05-08 07:09 36.23339 117.28147 39207 ft 521 kts 173°
2026-05-08 07:09 36.16415 117.30723 39212 ft 519 kts 173°
2026-05-08 07:10 36.09495 117.33287 39218 ft 519 kts 173°
2026-05-08 07:10 36.02577 117.35846 39226 ft 520 kts 173°
2026-05-08 07:11 35.95678 117.38412 39221 ft 519 kts 173°
2026-05-08 07:11 35.88703 117.41023 39225 ft 524 kts 173°
2026-05-08 07:12 35.81752 117.43628 39223 ft 518 kts 173°
2026-05-08 07:12 35.74899 117.46184 39232 ft 520 kts 173°
2026-05-08 07:13 35.67932 117.48778 39239 ft 521 kts 173°
2026-05-08 07:13 35.61014 117.51352 39233 ft 517 kts 173°
2026-05-08 07:14 35.54093 117.53916 39245 ft 522 kts 172°
2026-05-08 07:14 35.47179 117.56483 39242 ft 515 kts 173°
2026-05-08 07:15 35.40298 117.59024 39251 ft 519 kts 173°
2026-05-08 07:15 35.33366 117.61581 39252 ft 520 kts 173°
2026-05-08 07:16 35.26493 117.64114 39244 ft 517 kts 173°
2026-05-08 07:16 35.19592 117.66653 39215 ft 514 kts 173°
2026-05-08 07:17 35.12748 117.69164 39228 ft 518 kts 173°
2026-05-08 07:17 35.05804 117.71708 39213 ft 518 kts 173°
2026-05-08 07:18 34.98921 117.74230 39219 ft 518 kts 173°
2026-05-08 07:18 34.92006 117.76759 39224 ft 520 kts 173°
2026-05-08 07:19 34.85107 117.79284 39217 ft 512 kts 173°
2026-05-08 07:19 34.78284 117.81768 39224 ft 519 kts 174°
2026-05-08 07:20 34.71363 117.84260 39216 ft 516 kts 174°
2026-05-08 07:20 34.64472 117.86735 39227 ft 517 kts 174°
2026-05-08 07:21 34.57628 117.89191 39223 ft 517 kts 174°
2026-05-08 07:21 34.50764 117.91650 39229 ft 514 kts 174°
2026-05-08 07:22 34.43879 117.94113 39225 ft 512 kts 174°
2026-05-08 07:22 34.37003 117.96564 39238 ft 517 kts 174°
2026-05-08 07:23 34.30115 117.99023 39239 ft 513 kts 174°
2026-05-08 07:23 34.23286 118.01480 39233 ft 514 kts 173°
2026-05-08 07:24 34.16453 118.03973 39256 ft 518 kts 173°
2026-05-08 07:24 34.09590 118.06473 39254 ft 512 kts 173°
2026-05-08 07:25 34.04339 118.08379 39255 ft 516 kts 173°
2026-05-08 07:26 33.96198 118.11340 39255 ft 514 kts 173°
2026-05-08 07:26 33.89331 118.13841 39257 ft 512 kts 173°
2026-05-08 07:27 33.82471 118.16532 39253 ft 527 kts 166°
2026-05-08 07:27 33.76072 118.21022 39261 ft 539 kts 154°
2026-05-08 07:28 33.69902 118.26174 39270 ft 545 kts 153°
2026-05-08 07:28 33.63686 118.31361 39249 ft 539 kts 153°
2026-05-08 07:29 33.58692 118.35509 39264 ft 543 kts 154°
2026-05-08 07:29 33.52515 118.40630 39249 ft 540 kts 153°
2026-05-08 07:30 33.46331 118.45744 39248 ft 542 kts 153°
2026-05-08 07:30 33.40135 118.50857 39248 ft 541 kts 153°
2026-05-08 07:31 33.33989 118.55920 39244 ft 540 kts 153°
2026-05-08 07:31 33.27740 118.61054 39247 ft 541 kts 153°
2026-05-08 07:32 33.21532 118.66147 39235 ft 543 kts 154°
2026-05-08 07:32 33.15390 118.71236 39231 ft 541 kts 153°
2026-05-08 07:33 33.09181 118.76389 39230 ft 542 kts 153°
2026-05-08 07:33 33.03018 118.81497 39233 ft 542 kts 154°
2026-05-08 07:34 32.96805 118.86638 39232 ft 540 kts 153°
2026-05-08 07:34 32.90630 118.91736 39240 ft 543 kts 153°
2026-05-08 07:35 32.84399 118.96874 39232 ft 541 kts 153°
2026-05-08 07:35 32.78204 119.02018 39242 ft 542 kts 153°
2026-05-08 07:36 32.72002 119.07165 39241 ft 546 kts 153°
2026-05-08 07:36 32.65773 119.12327 39239 ft 545 kts 153°
2026-05-08 07:37 32.59575 119.17454 39237 ft 543 kts 154°
2026-05-08 07:37 32.53366 119.22577 39248 ft 546 kts 153°
2026-05-08 07:38 32.47168 119.27685 39245 ft 543 kts 154°
2026-05-08 07:38 32.40986 119.32770 39235 ft 541 kts 153°
2026-05-08 07:38 32.37900 119.35310 38671 ft 538 kts 153°
2026-05-08 07:39 32.34800 119.37850 37725 ft 543 kts 153°
2026-05-08 07:39 32.31693 119.40395 36902 ft 545 kts 153°
2026-05-08 07:39 32.28611 119.42919 36103 ft 547 kts 152°
2026-05-08 07:39 32.25473 119.45488 35265 ft 548 kts 152°
2026-05-08 07:40 32.22343 119.48048 34408 ft 549 kts 152°
2026-05-08 07:40 32.19225 119.50596 33505 ft 549 kts 151°
2026-05-08 07:40 32.16077 119.53168 32523 ft 546 kts 151°
2026-05-08 07:40 32.12974 119.55703 31601 ft 540 kts 151°
2026-05-08 07:41 32.09935 119.58182 30738 ft 534 kts 151°
2026-05-08 07:41 32.06915 119.60645 30222 ft 520 kts 150°
2026-05-08 07:41 32.03970 119.63047 29720 ft 508 kts 150°
2026-05-08 07:41 32.01089 119.65391 29208 ft 498 kts 151°
2026-05-08 07:42 31.98245 119.67702 28605 ft 494 kts 152°
2026-05-08 07:42 31.95526 119.70164 28013 ft 496 kts 143°
2026-05-08 07:42 31.93118 119.73111 27433 ft 498 kts 134°
2026-05-08 07:42 31.91079 119.76383 26866 ft 497 kts 128°
2026-05-08 07:43 31.89132 119.79758 26284 ft 494 kts 128°
2026-05-08 07:43 31.87229 119.83071 25709 ft 490 kts 128°
2026-05-08 07:43 31.85324 119.86386 25131 ft 486 kts 128°
2026-05-08 07:43 31.83434 119.89670 24552 ft 483 kts 128°
2026-05-08 07:44 31.81555 119.92933 23975 ft 479 kts 128°
2026-05-08 07:44 31.79702 119.96146 23405 ft 476 kts 128°
2026-05-08 07:44 31.77870 119.99321 22830 ft 473 kts 128°
2026-05-08 07:44 31.76014 120.02532 22278 ft 470 kts 128°
2026-05-08 07:45 31.74184 120.05697 21707 ft 468 kts 127°
2026-05-08 07:45 31.72382 120.08809 21126 ft 465 kts 127°
2026-05-08 07:45 31.70558 120.11958 20519 ft 463 kts 127°
2026-05-08 07:45 31.68751 120.15073 19922 ft 461 kts 126°
2026-05-08 07:46 31.66976 120.18133 19324 ft 458 kts 126°
2026-05-08 07:46 31.65189 120.21211 18718 ft 454 kts 126°
2026-05-08 07:46 31.63410 120.24272 18116 ft 451 kts 125°
2026-05-08 07:46 31.61676 120.27252 17516 ft 447 kts 125°
2026-05-08 07:47 31.59944 120.30266 16895 ft 443 kts 122°
2026-05-08 07:47 31.58551 120.33481 16312 ft 438 kts 111°
2026-05-08 07:47 31.57722 120.36109 16015 ft 430 kts 109°
2026-05-08 07:47 31.57051 120.38345 15784 ft 423 kts 109°
2026-05-08 07:48 31.56093 120.41553 15430 ft 414 kts 108°
2026-05-08 07:48 31.55154 120.44699 15067 ft 406 kts 108°
2026-05-08 07:48 31.54288 120.47599 14729 ft 402 kts 108°
2026-05-08 07:48 31.53804 120.49219 14539 ft 402 kts 108°
2026-05-08 07:49 31.52882 120.52304 14175 ft 399 kts 108°
2026-05-08 07:49 31.51981 120.55318 13820 ft 395 kts 108°
2026-05-08 07:49 31.51076 120.58340 13466 ft 392 kts 108°
2026-05-08 07:49 31.50175 120.61346 13115 ft 386 kts 108°
2026-05-08 07:50 31.49291 120.64296 12768 ft 378 kts 108°
2026-05-08 07:50 31.48430 120.67164 12428 ft 370 kts 108°
2026-05-08 07:50 31.47589 120.69963 12098 ft 363 kts 108°
2026-05-08 07:50 31.46758 120.72725 11763 ft 356 kts 108°
2026-05-08 07:51 31.45946 120.75426 11339 ft 353 kts 108°
2026-05-08 07:51 31.45130 120.78135 10968 ft 347 kts 108°
2026-05-08 07:51 31.44334 120.80777 10646 ft 341 kts 107°
2026-05-08 07:51 31.43559 120.83343 10346 ft 334 kts 107°
2026-05-08 07:52 31.42790 120.85891 10047 ft 327 kts 107°
2026-05-08 07:52 31.42045 120.88355 9698 ft 321 kts 107°
2026-05-08 07:52 31.41314 120.90771 9377 ft 305 kts 107°
2026-05-08 07:52 31.40625 120.93046 9094 ft 291 kts 107°
2026-05-08 07:53 31.39965 120.95226 8865 ft 281 kts 107°
2026-05-08 07:53 31.39313 120.97376 8641 ft 276 kts 107°
2026-05-08 07:53 31.38679 120.99464 8496 ft 273 kts 107°
2026-05-08 07:53 31.38039 121.01571 8332 ft 272 kts 107°
2026-05-08 07:54 31.37411 121.03635 8179 ft 271 kts 107°
2026-05-08 07:54 31.36780 121.05708 8015 ft 269 kts 107°
2026-05-08 07:54 31.36150 121.07775 7857 ft 268 kts 107°
2026-05-08 07:54 31.35525 121.09824 7704 ft 267 kts 107°
2026-05-08 07:55 31.34907 121.11847 7558 ft 266 kts 107°
2026-05-08 07:55 31.34270 121.13895 7399 ft 266 kts 107°
2026-05-08 07:55 31.33645 121.15903 7232 ft 265 kts 107°
2026-05-08 07:55 31.33015 121.17929 7096 ft 264 kts 107°
2026-05-08 07:56 31.32306 121.19916 6949 ft 266 kts 120°
2026-05-08 07:56 31.31854 121.20619 6868 ft 268 kts 131°
2026-05-08 07:56 31.30620 121.21672 6722 ft 272 kts 154°
2026-05-08 07:56 31.28797 121.22197 6573 ft 274 kts 171°
2026-05-08 07:57 31.26889 121.22367 6422 ft 274 kts 175°
2026-05-08 07:57 31.24985 121.22470 6263 ft 274 kts 175°
2026-05-08 07:57 31.23069 121.22572 6106 ft 274 kts 175°
2026-05-08 07:57 31.21166 121.22678 5951 ft 273 kts 175°
2026-05-08 07:58 31.19277 121.22782 5787 ft 272 kts 175°
2026-05-08 07:58 31.17389 121.22886 5599 ft 272 kts 175°
2026-05-08 07:58 31.15486 121.22990 5402 ft 270 kts 175°
2026-05-08 07:58 31.13604 121.23093 5189 ft 268 kts 175°
2026-05-08 07:59 31.11737 121.23196 4993 ft 268 kts 175°
2026-05-08 07:59 31.09909 121.23296 4802 ft 262 kts 174°
2026-05-08 07:59 31.08109 121.23394 4611 ft 252 kts 174°
2026-05-08 07:59 31.06362 121.23490 4477 ft 249 kts 174°
2026-05-08 08:00 31.04646 121.23588 4299 ft 244 kts 172°
2026-05-08 08:00 31.03085 121.24136 4173 ft 228 kts 142°
2026-05-08 08:00 31.01997 121.25384 3986 ft 218 kts 118°
2026-05-08 08:00 31.01494 121.27005 3801 ft 212 kts 95°
2026-05-08 08:01 31.01380 121.28706 3646 ft 209 kts 88°
2026-05-08 08:01 31.01412 121.30399 3500 ft 208 kts 85°
2026-05-08 08:01 31.01502 121.32064 3355 ft 207 kts 77°
2026-05-08 08:01 31.02140 121.33527 3181 ft 205 kts 45°
2026-05-08 08:02 31.03386 121.34313 2970 ft 209 kts 14°
2026-05-08 08:02 31.04854 121.34436 2666 ft 214 kts
2026-05-08 08:02 31.06350 121.34345 2352 ft 213 kts 359°
2026-05-08 08:02 31.07810 121.34240 2073 ft 209 kts
2026-05-08 08:03 31.09272 121.34174 1801 ft 209 kts
2026-05-08 08:03 31.10715 121.34105 1508 ft 204 kts
2026-05-08 08:03 31.12082 121.34034 1232 ft 186 kts
2026-05-08 08:03 31.13358 121.33969 997 ft 175 kts
2026-05-08 08:04 31.14520 121.33907 771 ft 156 kts
2026-05-08 08:04 31.15558 121.33854 603 ft 145 kts
2026-05-08 08:04 31.16551 121.33799 407 ft 142 kts
2026-05-08 08:04 31.17551 121.33749 204 ft 140 kts
2026-05-08 08:05 31.18529 121.33691 23 ft 141 kts
2026-05-08 08:05 31.19376 121.33644 23 ft 99 kts
2026-05-08 08:05 31.19935 121.33625 25 ft 67 kts
2026-05-08 08:05 31.20127 121.33607 22 ft 18 kts 346°
2026-05-08 08:06 31.20249 121.33575 23 ft 17 kts 345°
2026-05-08 08:06 31.20349 121.33524 28 ft 13 kts 332°
2026-05-08 08:06 31.20424 121.33475 29 ft 11 kts 330°
2026-05-08 08:06 31.20494 121.33423 29 ft 12 kts 320°
2026-05-08 08:07 31.20518 121.33330 27 ft 13 kts 266°
2026-05-08 08:07 31.20513 121.33214 26 ft 14 kts 266°
2026-05-08 08:07 31.20507 121.33091 24 ft 15 kts 266°
2026-05-08 08:07 31.20479 121.32968 23 ft 16 kts 220°
2026-05-08 08:08 31.20367 121.32943 24 ft 17 kts 178°
2026-05-08 08:08 31.20249 121.32930 25 ft 16 kts 207°
2026-05-08 08:08 31.20150 121.32854 26 ft 17 kts 213°
2026-05-08 08:08 31.20088 121.32828 26 ft 6 kts 192°
2026-05-08 08:09 31.20046 121.32816 26 ft 3 kts 194°
2026-05-08 08:09 31.20015 121.32807 26 ft 5 kts 194°
2026-05-08 08:09 31.19993 121.32801 26 ft 0 kts 194°
2026-05-08 08:09 31.19991 121.32800 25 ft 0 kts 194°